STARLINK-2044 (47660 NORAD) Tracking and Keplerian Element Data

This shows tracking and keplerian element data for the satellite.

Feedback or suggestion? Click here.




ElementValue
Catalog47660
NameSTARLINK-2044
Epoch Orbit944
Epoch Day102.16668981
Epoch Year2021
RAAN187.6919
Inclination53.0473
Eccentricity0.0001687
Argument of Perigee35.1641
Mean Anonmoly10.492
Mean Motion15.73182527
Decay Rate0.00046214
L11 47660U 21012AS 21102.16668981 .00046214 00000-0 33207-3 0 9995
L22 47660 53.0473 187.6919 0001687 35.1641 10.4920 15.73182527 9444

Live tracking and technical data element details for STARLINK-2044 (NORAD 47660). STARLINK-2044 can be tracked NOW for your location showing map with azimuth and elevation plus other details from your city location.

Track the satellite on the map from your city or location and see movement details for azimuth, elevation, latitude, longitude, range, height, and movement on the map or in text.







IsCatalogInMostPopularTable: catalog: 47660, numindb: 18
Update: records affected: 1



GetName: 47660 STARLINK-2044

Hit Count: updated at: Tue, 13 Apr 2021 05:35:31 GMT